User: anonymous
Location: Brainerd
(46.3580°N, 94.2010°W)
Time: 15:44:27
(UTC-05:00)
Language:

CZ-4C R/B - Orbit

View from above orbital plane
View from above orbital plane
View from above satellite
View from above satellite

Ground track
Ground track

The orbit data is extracted from the following two-line orbital elements,

1 32290U 07055B   14107.81992414  .00008944  00000-0  36205-3 0  8346
2 32290 097.5783 182.0212 0088965 260.0644 233.4119 15.21292794355098
Epoch (UTC): 17 April 2014 19:40:41
Eccentricity: 0.0088965
inclination: 97.5783°
perigee height: 441 km
apogee height: 563 km
right ascension of ascending node: 182.0212°
argument of perigee: 260.0644°
revolutions per day: 15.21292794
mean anomaly at epoch: 233.4119°
orbit number at epoch: 35509

The dashed part of the orbit path shows where the satellite is in the earth's shadow,  

DLR